KG5TTF Weather Reports


Display with metric or nautical units.
time (UTC)temp
F
wind
direction
speed
MPH
gust
MPH
rain 1hr
in
rain 24hr
in
rain mn
in
humidity
%
barometer
mb
20260507140006 41 4 0.0 0.0 0.00 0.00 0.00 48 1022.0
20260507135503 40 287 0.0 0.0 0.00 0.00 0.00 49 1021.8
20260507134959 40 297 0.0 0.0 0.00 0.00 0.00 49 1021.8
20260507134456 39 271 0.0 0.0 0.00 0.00 0.00 51 1021.6
20260507133952 39 301 0.0 0.0 0.00 0.00 0.00 50 1021.6
20260507133448 39 306 0.0 0.0 0.00 0.00 0.00 50 1021.5
20260507132947 39 344 0.0 0.0 0.00 0.00 0.00 50 1021.5
20260507132442 38 338 0.0 0.0 0.00 0.00 0.00 51 1021.6
20260507131939 38 310 0.0 0.0 0.00 0.00 0.00 51 1021.5
20260507131436 38 0 0.0 0.0 0.00 0.00 0.00 51 1021.5
20260507130933 38 301 0.0 0.0 0.00 0.00 0.00 50 1021.4
20260507130430 37 332 0.0 0.0 0.00 0.00 0.00 50 1021.4
20260507125929 37 327 0.0 0.0 0.00 0.00 0.00 50 1021.5
20260507125426 37 314 0.0 0.0 0.00 0.00 0.00 51 1021.4
20260507124924 37 295 0.0 0.0 0.00 0.00 0.00 51 1021.3
20260507124419 36 302 0.0 0.0 0.00 0.00 0.00 52 1021.3
20260507123918 36 347 0.0 0.0 0.00 0.00 0.00 53 1021.1
20260507123415 37 341 0.0 0.0 0.00 0.00 0.00 50 1021.0
20260507122912 37 355 0.0 0.0 0.00 0.00 0.00 50 1020.9
20260507122407 36 290 0.0 0.0 0.00 0.00 0.00 51 1021.1
20260507121903 36 7 0.0 0.0 0.00 0.00 0.00 51 1020.9
20260507121358 36 281 0.0 0.0 0.00 0.00 0.00 52 1021.0
20260507120855 35 311 0.0 0.0 0.00 0.00 0.00 52 1020.8
20260507120352 35 298 0.0 0.0 0.00 0.00 0.00 52 1020.8
20260507115848 35 358 0.0 0.0 0.00 0.00 0.00 52 1020.9
20260507115344 35 200 0.0 0.0 0.00 0.00 0.00 52 1020.9
20260507114839 35 309 0.0 0.0 0.00 0.00 0.00 52 1020.8
20260507114337 35 335 0.0 0.0 0.00 0.00 0.00 52 1020.8
20260507113834 35 299 0.0 0.0 0.00 0.00 0.00 51 1020.9
20260507113331 35 332 0.0 0.0 0.00 0.00 0.00 52 1020.7
20260507112829 35 325 0.0 0.0 0.00 0.00 0.00 51 1020.8
20260507112325 35 334 0.0 0.0 0.00 0.00 0.00 51 1021.0
20260507111824 36 325 0.0 0.0 0.00 0.00 0.00 51 1020.9
20260507111315 37 316 0.0 0.0 0.00 0.00 0.00 48 1020.9
20260507110811 36 297 0.0 0.0 0.00 0.00 0.00 50 1020.8
20260507110307 35 309 0.0 0.0 0.00 0.00 0.00 52 1020.9
20260507105804 35 299 0.0 0.0 0.00 0.00 0.00 54 1020.8
20260507105300 35 305 0.0 0.0 0.00 0.00 0.00 53 1020.9
20260507104757 35 304 0.0 0.0 0.00 0.00 0.00 53 1021.0
20260507104253 35 336 0.0 0.0 0.00 0.00 0.00 52 1021.0
20260507103749 35 346 0.0 0.0 0.00 0.00 0.00 52 1021.0
20260507103240 35 326 0.0 0.0 0.00 0.00 0.00 53 1020.8
20260507102736 35 315 0.0 0.0 0.00 0.00 0.00 54 1021.1
20260507102233 34 322 0.0 0.0 0.00 0.00 0.00 55 1020.9
20260507101729 34 314 0.0 0.0 0.00 0.00 0.00 56 1021.0
20260507101225 34 339 0.0 0.0 0.00 0.00 0.00 57 1021.3
20260507100722 34 157 0.0 0.0 0.00 0.00 0.00 58 1021.1
20260507100220 34 308 0.0 1.0 0.00 0.00 0.00 58 1021.0
20260507095718 34 300 0.0 0.0 0.00 0.00 0.00 59 1021.4
20260507095214 34 36 0.0 0.0 0.00 0.00 0.00 58 1021.4
20260507094711 34 323 0.0 0.0 0.00 0.00 0.00 58 1021.0
20260507094208 34 312 0.0 0.0 0.00 0.00 0.00 58 1021.4
20260507093705 34 1 0.0 0.0 0.00 0.00 0.00 59 1021.1
20260507093204 33 8 0.0 0.0 0.00 0.00 0.00 60 1021.4
20260507092701 34 320 1.0 3.0 0.00 0.00 0.00 60 1020.9
20260507092157 34 133 0.0 0.0 0.00 0.00 0.00 60 1021.3
20260507091654 34 298 0.0 0.0 0.00 0.00 0.00 59 1021.3
20260507091151 33 284 0.0 0.0 0.00 0.00 0.00 60 1021.3
20260507090646 33 311 0.0 0.0 0.00 0.00 0.00 62 1021.0
20260507090143 33 334 0.0 0.0 0.00 0.00 0.00 63 1021.1
20260507085640 33 303 0.0 0.0 0.00 0.00 0.00 64 1021.3
20260507085136 33 294 0.0 0.0 0.00 0.00 0.00 65 1021.3
20260507084633 33 346 0.0 0.0 0.00 0.00 0.00 65 1021.4
20260507084130 32 124 0.0 0.0 0.00 0.00 0.00 66 1021.4
20260507083626 33 319 0.0 0.0 0.00 0.00 0.00 67 1021.4
20260507083123 33 285 0.0 0.0 0.00 0.00 0.00 66 1021.3
20260507082619 34 337 0.0 0.0 0.00 0.00 0.00 63 1021.3
20260507082116 34 306 0.0 0.0 0.00 0.00 0.00 62 1021.3
20260507081612 34 327 0.0 0.0 0.00 0.00 0.00 63 1021.3
20260507081109 33 293 0.0 1.0 0.00 0.00 0.00 65 1021.5
20260507080605 33 309 0.0 0.0 0.00 0.00 0.00 68 1021.4
20260507075556 32 327 1.0 3.0 0.00 0.00 0.00 72 1021.6
20260507075053 32 343 0.0 0.0 0.00 0.00 0.00 73 1021.9
20260507074550 32 28 0.0 0.0 0.00 0.00 0.00 74 1021.8
20260507074049 32 109 0.0 0.0 0.00 0.00 0.00 74 1021.8
20260507073544 32 270 0.0 0.0 0.00 0.00 0.00 75 1021.9
20260507073041 32 31 0.0 0.0 0.00 0.00 0.00 75 1022.0
20260507072539 31 151 0.0 0.0 0.00 0.00 0.00 76 1022.1
20260507072036 31 87 0.0 0.0 0.00 0.00 0.00 78 1021.9
20260507071533 31 204 0.0 0.0 0.00 0.00 0.00 78 1021.9
20260507071029 31 106 0.0 0.0 0.00 0.00 0.00 79 1021.9
20260507070527 31 4 0.0 0.0 0.00 0.00 0.00 80 1022.1
20260507070024 31 147 0.0 0.0 0.00 0.00 0.00 81 1022.0
20260507065520 31 98 0.0 0.0 0.00 0.00 0.00 81 1022.1
20260507065017 31 336 0.0 0.0 0.00 0.00 0.00 82 1021.9
20260507064515 31 56 0.0 0.0 0.00 0.00 0.00 82 1022.0
20260507064013 31 95 0.0 0.0 0.00 0.00 0.00 83 1022.0
20260507063510 31 47 0.0 0.0 0.00 0.00 0.00 83 1022.0
20260507063008 31 348 0.0 0.0 0.00 0.00 0.00 84 1022.0
20260507062504 30 193 0.0 0.0 0.00 0.00 0.00 85 1021.9
20260507062001 30 50 0.0 0.0 0.00 0.00 0.00 86 1021.9
20260507061459 30 130 0.0 0.0 0.00 0.00 0.00 87 1021.9
20260507060957 30 145 0.0 0.0 0.00 0.00 0.00 87 1022.0
20260507060454 30 197 0.0 0.0 0.00 0.00 0.00 87 1022.0
20260507055950 30 324 0.0 0.0 0.00 0.32 0.32 87 1022.1
20260507055446 30 61 0.0 0.0 0.00 0.32 0.32 87 1022.1
20260507054943 30 302 0.0 0.0 0.00 0.32 0.32 87 1022.1
20260507054439 30 78 0.0 0.0 0.00 0.32 0.32 87 1022.1
20260507053936 30 183 0.0 0.0 0.00 0.32 0.32 87 1022.1
20260507053434 30 116 0.0 0.0 0.00 0.32 0.32 87 1021.9
20260507052932 30 146 0.0 0.0 0.00 0.32 0.32 88 1022.2
20260507052429 30 81 0.0 0.0 0.00 0.32 0.32 89 1022.0
20260507051926 30 22 0.0 0.0 0.00 0.32 0.32 88 1022.0
20260507051424 30 355 0.0 0.0 0.00 0.32 0.32 88 1022.0
20260507050921 30 318 0.0 0.0 0.00 0.32 0.32 89 1022.0
20260507050417 30 333 0.0 0.0 0.00 0.32 0.32 88 1021.9
20260507045914 30 341 0.0 0.0 0.00 0.32 0.32 88 1022.0
20260507045410 30 127 0.0 0.0 0.00 0.32 0.32 88 1022.0
20260507044903 30 25 0.0 0.0 0.00 0.32 0.32 88 1022.0
20260507044359 31 355 0.0 0.0 0.00 0.32 0.32 87 1022.2
20260507043855 31 346 0.0 0.0 0.00 0.32 0.32 87 1022.1
20260507043352 31 6 0.0 0.0 0.00 0.32 0.32 87 1022.0
20260507042848 31 56 0.0 0.0 0.00 0.32 0.32 87 1022.0
20260507042344 31 74 0.0 0.0 0.00 0.32 0.32 86 1022.0
20260507041841 31 147 0.0 0.0 0.00 0.32 0.32 86 1022.1
20260507041338 31 56 0.0 0.0 0.00 0.32 0.32 86 1021.8
20260507040835 31 53 0.0 0.0 0.00 0.32 0.32 86 1022.0
20260507040331 32 347 0.0 0.0 0.00 0.32 0.32 86 1021.6
20260507035827 32 66 0.0 0.0 0.00 0.32 0.32 86 1021.6
20260507035322 32 313 0.0 0.0 0.00 0.32 0.32 86 1022.0
20260507034821 32 121 0.0 0.0 0.00 0.32 0.32 86 1021.9
20260507034317 32 309 0.0 1.0 0.00 0.32 0.32 86 1022.0
20260507033815 32 292 0.0 0.0 0.00 0.32 0.32 85 1021.8
20260507033313 32 153 0.0 0.0 0.00 0.32 0.32 85 1021.8
20260507032809 32 157 0.0 0.0 0.00 0.32 0.32 85 1021.9
20260507032306 32 281 0.0 0.0 0.00 0.32 0.32 85 1021.9
20260507031802 32 202 0.0 0.0 0.00 0.32 0.32 85 1022.0
20260507031259 32 217 0.0 0.0 0.00 0.32 0.32 84 1021.6
20260507030755 32 195 0.0 0.0 0.00 0.32 0.32 84 1021.9
20260507030253 32 193 0.0 0.0 0.00 0.32 0.32 84 1021.8
20260507025750 32 249 0.0 0.0 0.00 0.32 0.32 84 1021.5
20260507025247 32 176 0.0 0.0 0.00 0.32 0.32 84 1021.5
20260507024745 32 274 0.0 0.0 0.00 0.32 0.32 84 1021.5
20260507024242 32 188 0.0 0.0 0.00 0.32 0.32 84 1021.6
20260507023738 32 149 0.0 0.0 0.00 0.32 0.32 85 1021.5
20260507023235 32 184 0.0 0.0 0.07 0.32 0.32 84 1021.8
20260507022732 32 280 0.0 0.0 0.07 0.32 0.32 85 1021.5
20260507022228 31 173 0.0 0.0 0.00 0.31 0.31 85 1021.4
20260507021724 31 245 0.0 0.0 0.00 0.31 0.31 85 1021.5
20260507021220 31 185 0.0 0.0 0.00 0.31 0.31 85 1021.8
20260507020719 32 190 0.0 0.0 0.00 0.31 0.31 84 1021.4
20260507020214 32 178 0.0 0.0 0.00 0.31 0.31 84 1021.6
20260507015712 32 195 0.0 0.0 0.00 0.31 0.31 84 1021.4
20260507015209 32 190 0.0 0.0 0.00 0.31 0.31 83 1021.4
20260507014706 32 194 0.0 0.0 0.00 0.31 0.31 82 1021.4
20260507014202 33 160 0.0 0.0 0.00 0.31 0.31 81 1021.5
20260507013659 33 193 0.0 0.0 0.00 0.31 0.31 79 1021.4
20260507013156 34 176 0.0 0.0 0.00 0.31 0.31 77 1021.4
20260507012654 34 200 0.0 0.0 0.00 0.31 0.31 77 1021.6
20260507012149 34 206 0.0 0.0 0.00 0.31 0.31 76 1021.5
20260507011647 35 190 0.0 0.0 0.00 0.31 0.31 74 1021.5
20260507011143 35 181 0.0 0.0 0.05 0.31 0.31 72 1021.6
20260507010638 35 153 0.0 0.0 0.05 0.31 0.31 74 1021.9
20260507010134 36 208 0.0 0.0 0.00 0.30 0.30 71 1021.6
20260507005631 36 231 0.0 0.0 0.00 0.30 0.30 71 1021.5
20260507005128 36 214 0.0 0.0 0.00 0.30 0.30 71 1021.8
20260507004625 36 153 0.0 0.0 0.07 0.30 0.30 72 1021.6
20260507004122 36 233 0.0 0.0 0.07 0.30 0.30 73 1021.6
20260507003618 35 199 0.0 0.0 0.00 0.29 0.29 72 1021.6
20260507003112 35 224 0.0 0.0 0.00 0.29 0.29 72 1021.6
20260507002610 36 205 0.0 0.0 0.05 0.29 0.29 70 1021.8
20260507002105 35 266 0.0 0.0 0.05 0.29 0.29 72 1021.5
20260507001602 36 193 0.0 0.0 0.00 0.28 0.28 71 1021.6
20260507001100 36 173 0.0 0.0 0.07 0.28 0.28 74 1021.8
20260507000556 36 202 0.0 0.0 0.07 0.28 0.28 72 1021.8
20260507000051 36 184 0.0 0.0 0.00 0.27 0.27 72 1021.6
20260506235549 35 144 0.0 0.0 0.05 0.27 0.27 75 1021.4
20260506235044 35 226 0.0 0.0 0.05 0.27 0.27 75 1021.5
20260506234542 35 211 0.0 0.0 0.07 0.26 0.26 73 1021.6
20260506234039 36 181 0.0 0.0 0.07 0.26 0.26 73 1021.8
20260506233536 36 171 0.0 0.0 0.05 0.25 0.25 71 1021.8
20260506233032 36 209 0.0 0.0 0.05 0.25 0.25 71 1021.6
20260506232529 36 90 0.0 0.0 0.07 0.24 0.24 75 1021.6
20260506232024 35 202 0.0 0.0 0.07 0.24 0.24 73 1021.8
20260506231522 36 190 0.0 0.0 0.05 0.23 0.23 71 1022.0
20260506231020 36 112 0.0 0.0 0.05 0.23 0.23 71 1021.6
20260506230516 36 197 0.0 0.0 0.07 0.22 0.22 70 1021.9
20260506230014 37 163 0.0 0.0 0.14 0.22 0.22 70 1021.8
20260506225510 37 203 0.0 0.0 0.12 0.21 0.21 68 1022.0
20260506225007 37 316 0.0 0.0 0.05 0.20 0.20 71 1022.1
20260506224503 35 112 0.0 0.0 0.07 0.19 0.19 73 1022.0
20260506224000 35 334 0.0 0.0 0.12 0.19 0.19 75 1022.0
20260506223456 36 332 0.0 0.0 0.05 0.18 0.18 77 1022.1
20260506222953 34 135 0.0 0.0 0.12 0.18 0.18 77 1021.9
20260506222450 33 197 0.0 0.0 0.07 0.17 0.17 79 1022.0
20260506221946 34 151 0.0 0.0 0.05 0.16 0.16 77 1022.2
20260506221443 33 150 0.0 0.0 0.12 0.16 0.16 79 1022.1
20260506220936 34 201 0.0 0.0 0.12 0.15 0.15 77 1022.2
20260506220431 35 283 0.0 0.0 0.12 0.14 0.14 79 1022.1
20260506215928 34 294 0.0 0.0 0.12 0.13 0.13 78 1022.2
20260506215424 34 314 0.0 0.0 0.12 0.12 0.12 79 1022.2
20260506214920 35 344 0.0 0.0 0.07 0.11 0.11 78 1022.2
20260506214417 36 284 0.0 0.0 0.05 0.10 0.10 75 1022.4
20260506213915 35 0 0.0 0.0 0.12 0.10 0.10 79 1022.5
20260506213413 34 348 0.0 0.0 0.14 0.09 0.09 79 1022.5
20260506212910 34 346 0.0 0.0 0.12 0.08 0.08 79 1022.4
20260506212406 35 305 0.0 0.0 0.12 0.07 0.07 78 1022.6
20260506211900 35 17 0.0 0.0 0.24 0.06 0.06 78 1022.7
20260506211357 35 16 0.0 0.0 0.17 0.05 0.05 78 1022.6
20260506210854 35 297 0.0 0.0 0.00 0.02 0.02 79 1022.6
20260506210351 34 44 0.0 0.0 0.07 0.02 0.02 80 1022.7
20260506205848 34 43 0.0 0.0 0.07 0.02 0.02 79 1022.5
20260506205344 36 40 0.0 0.0 0.00 0.01 0.01 78 1022.5
20260506204840 35 40 0.0 0.0 0.00 0.01 0.01 79 1022.6
20260506204338 36 40 0.0 0.0 0.00 0.01 0.01 76 1022.7
20260506203836 38 40 0.0 0.0 0.00 0.01 0.01 71 1022.7
20260506203333 38 39 0.0 0.0 0.00 0.01 0.01 71 1023.0
20260506202829 37 39 0.0 0.0 0.05 0.01 0.01 74 1023.0
20260506202327 36 39 0.0 0.0 0.05 0.01 0.01 75 1023.3
20260506201823 35 39 0.0 0.0 0.00 0.00 0.00 77 1022.9
20260506201321 36 22 0.0 0.0 0.00 0.00 0.00 76 1023.0
20260506200817 35 12 0.0 0.0 0.00 0.00 0.00 77 1022.9
20260506200313 35 50 0.0 0.0 0.00 0.00 0.00 80 1022.9
20260506195809 33 50 0.0 0.0 0.00 0.00 0.00 84 1022.7
20260506195307 34 54 0.0 0.0 0.00 0.00 0.00 82 1023.1
20260506194804 33 58 0.0 0.0 0.00 0.00 0.00 84 1022.9
20260506194300 33 59 0.0 0.0 0.00 0.00 0.00 86 1022.9
20260506193758 32 61 0.0 0.0 0.00 0.00 0.00 85 1022.9
20260506193254 33 58 0.0 0.0 0.00 0.00 0.00 86 1023.0
20260506192750 31 61 0.0 0.0 0.00 0.00 0.00 87 1023.0
20260506192248 32 59 0.0 0.0 0.00 0.00 0.00 86 1022.7
20260506191744 32 65 0.0 0.0 0.00 0.00 0.00 88 1023.0
20260506191241 32 65 0.0 0.0 0.00 0.00 0.00 89 1023.0
20260506190738 32 65 0.0 0.0 0.00 0.00 0.00 88 1023.0
20260506190234 31 63 0.0 0.0 0.00 0.00 0.00 89 1023.2
20260506185732 31 63 0.0 0.0 0.00 0.00 0.00 90 1023.1
20260506185228 31 61 0.0 0.0 0.00 0.00 0.00 91 1023.2
20260506184725 31 60 0.0 0.0 0.00 0.00 0.00 90 1023.2
20260506184223 31 59 0.0 0.0 0.00 0.00 0.00 90 1023.2
20260506183719 32 59 0.0 0.0 0.00 0.00 0.00 92 1023.2
20260506183215 32 57 0.0 0.0 0.00 0.00 0.00 91 1023.2
20260506182712 32 55 0.0 0.0 0.00 0.00 0.00 91 1023.2
20260506182209 32 52 0.0 0.0 0.00 0.00 0.00 91 1023.1
20260506181707 32 48 0.0 0.0 0.00 0.00 0.00 92 1023.0
20260506181205 31 47 0.0 0.0 0.00 0.00 0.00 92 1022.9
20260506180702 30 45 0.0 0.0 0.00 0.00 0.00 91 1023.0
20260506180157 31 44 0.0 0.0 0.00 0.00 0.00 89 1023.0
20260506175654 33 41 0.0 0.0 0.00 0.00 0.00 90 1023.0
20260506175150 33 37 0.0 0.0 0.00 0.00 0.00 90 1022.9
20260506174648 33 36 0.0 0.0 0.00 0.00 0.00 91 1022.9
20260506174145 33 36 0.0 0.0 0.00 0.00 0.00 90 1022.9
20260506173644 33 30 0.0 0.0 0.00 0.00 0.00 90 1023.0
20260506173140 33 35 0.0 0.0 0.00 0.00 0.00 91 1023.1
20260506172637 34 35 0.0 0.0 0.00 0.00 0.00 91 1023.0
20260506172133 33 35 0.0 0.0 0.00 0.00 0.00 91 1022.9
20260506171625 33 33 0.0 0.0 0.00 0.00 0.00 92 1022.6
20260506171122 33 34 0.0 0.0 0.00 0.00 0.00 93 1022.6
20260506170619 33 35 0.0 0.0 0.00 0.00 0.00 94 1022.2
20260506170111 33 36 0.0 0.0 0.00 0.00 0.00 94 1022.2
20260506165609 32 36 0.0 0.0 0.00 0.00 0.00 95 1022.4
20260506165059 32 36 0.0 0.0 0.00 0.00 0.00 95 1022.1
20260506164557 32 37 0.0 0.0 0.00 0.00 0.00 96 1022.2
20260506164054 32 38 0.0 0.0 0.00 0.00 0.00 96 1022.4
20260506163549 32 38 0.0 0.0 0.00 0.00 0.00 97 1021.9
20260506163045 32 38 0.0 0.0 0.00 0.00 0.00 97 1022.0
20260506162541 32 38 0.0 0.0 0.00 0.00 0.00 97 1022.0
20260506162034 32 38 0.0 0.0 0.00 0.00 0.00 97 1022.0
20260506161531 32 38 0.0 0.0 0.00 0.00 0.00 98 1022.0
20260506161027 32 38 0.0 0.0 0.00 0.00 0.00 98 1022.0
20260506160525 31 38 0.0 0.0 0.00 0.00 0.00 98 1022.1
20260506160022 31 38 0.0 0.0 0.00 0.00 0.00 98 1021.9
20260506155521 31 38 0.0 0.0 0.00 0.00 0.00 98 1022.0
20260506153652 31 38 0.0 0.0 0.00 0.00 0.00 99 1021.9
20260506153149 30 38 0.0 0.0 0.00 0.00 0.00 99 1022.0
20260506152646 30 38 0.0 0.0 0.00 0.00 0.00 99 1021.8
20260506152144 30 38 0.0 0.0 0.00 0.00 0.00 99 1021.6
20260506151643 30 38 0.0 0.0 0.00 0.00 0.00 99 1021.6
20260506151139 30 38 0.0 0.0 0.00 0.00 0.00 99 1021.4
20260506150636 31 38 0.0 0.0 0.00 0.00 0.00 99 1021.5
20260506150133 30 38 0.0 0.0 0.00 0.00 0.00 99 1021.3
20260506145630 30 38 0.0 0.0 0.00 0.00 0.00 99 1021.4
20260506145126 30 38 0.0 0.0 0.00 0.00 0.00 99 1021.4
20260506144624 30 39 0.0 0.0 0.00 0.00 0.00 99 1021.4
20260506144120 29 39 0.0 0.0 0.00 0.00 0.00 99 1021.4
20260506143618 29 39 0.0 0.0 0.00 0.00 0.00 99 1021.4
20260506143116 29 39 0.0 0.0 0.00 0.00 0.00 99 1021.5
20260506142614 29 39 0.0 0.0 0.00 0.00 0.00 99 1021.4
20260506142112 29 39 0.0 0.0 0.00 0.00 0.00 99 1021.5
20260506141609 29 39 0.0 0.0 0.00 0.00 0.00 99 1021.3
20260506141107 29 38 0.0 0.0 0.00 0.00 0.00 99 1021.5
20260506140604 29 38 0.0 0.0 0.00 0.00 0.00 99 1021.5